Precipitable_Water
0.26 0.17 0.16 0.19 0.27 0.32 0.40 0.42 0.51 0.57 0.58 0.55 0.65 0.73 0.66 0.67 0.76 0.94 1.01 1.14 1.27 1.10 1.06 1.12 1.15 1.18 1.21 1.25 1.34 1.38 1.35 1.24 1.21 1.09 1.03 0.99 1.01 1.02 0.99 1.03 1.05 1.06 1.05 1.13 1.14 1.09 1.18 1.26 1.29 1.33 1.38 1.42 1.47 1.49 1.49 1.48 1.48 1.47 1.39 1.46 1.48 1.58 1.66 1.63 1.59 1.56 1.51 1.45 1.39 1.33 1.26 1.23 1.28 1.28 1.30 1.30 1.34 1.35 1.36 1.40 1.41 1.42 1.47 1.51 1.55 1.58
0.22 0.16 0.15 0.15 0.22 0.30 0.34 0.36 0.43 0.56 0.58 0.55 0.48 0.58 0.66 0.76 0.73 0.89 0.94 1.16 1.27 1.05 1.06 1.20 1.19 1.22 1.24 1.29 1.32 1.41 1.36 1.24 1.24 1.17 1.08 1.02 1.03 1.04 1.00 1.03 1.04 1.05 1.08 1.15 1.13 1.07 1.15 1.23 1.25 1.29 1.34 1.39 1.38 1.43 1.47 1.46 1.48 1.52 1.46 1.41 1.46 1.57 1.61 1.63 1.61 1.55 1.52 1.49 1.42 1.30 1.24 1.25 1.24 1.26 1.23 1.23 1.32 1.34 1.34 1.34 1.38 1.43 1.49 1.55 1.60 1.63
0.18 0.15 0.15 0.16 0.18 0.25 0.29 0.33 0.37 0.50 0.55 0.52 0.43 0.55 0.66 0.77 0.91 1.00 1.03 1.12 1.18 1.07 1.03 1.18 1.10 1.18 1.27 1.31 1.39 1.39 1.39 1.40 1.40 1.32 1.23 1.12 1.05 1.06 1.06 1.05 1.03 1.01 1.01 1.10 1.10 1.04 1.10 1.19 1.22 1.26 1.29 1.32 1.37 1.41 1.42 1.47 1.49 1.52 1.47 1.41 1.43 1.50 1.56 1.60 1.62 1.56 1.51 1.53 1.52 1.43 1.35 1.32 1.25 1.31 1.29 1.28 1.34 1.39 1.32 1.30 1.37 1.45 1.52 1.58 1.63 1.68
0.15 0.16 0.17 0.18 0.18 0.20 0.23 0.30 0.36 0.47 0.53 0.41 0.34 0.55 0.53 0.76 0.75 0.70 0.95 1.07 1.13 1.05 1.00 1.10 1.07 1.15 1.31 1.32 1.33 1.41 1.43 1.47 1.47 1.43 1.38 1.33 1.15 1.11 1.10 1.06 1.03 1.02 1.02 1.01 1.03 0.98 1.07 1.16 1.20 1.22 1.25 1.27 1.33 1.39 1.41 1.46 1.48 1.49 1.47 1.44 1.42 1.43 1.52 1.57 1.59 1.57 1.59 1.58 1.57 1.54 1.48 1.40 1.33 1.24 1.31 1.33 1.36 1.35 1.31 1.25 1.35 1.44 1.52 1.59 1.63 1.68
0.16 0.20 0.21 0.19 0.18 0.19 0.20 0.27 0.32 0.40 0.45 0.41 0.34 0.47 0.58 0.68 0.77 0.72 0.80 1.01 1.13 1.12 1.16 1.11 1.03 1.05 1.22 1.13 1.18 1.33 1.46 1.47 1.47 1.45 1.41 1.39 1.32 1.26 1.24 1.12 1.08 1.03 1.02 0.98 1.01 0.98 1.08 1.13 1.15 1.18 1.22 1.27 1.26 1.33 1.37 1.41 1.50 1.47 1.49 1.46 1.43 1.39 1.43 1.53 1.56 1.58 1.62 1.60 1.57 1.58 1.54 1.46 1.38 1.36 1.31 1.28 1.26 1.28 1.26 1.25 1.29 1.35 1.47 1.56 1.62 1.67
0.19 0.20 0.21 0.21 0.19 0.18 0.19 0.22 0.28 0.37 0.41 0.39 0.37 0.40 0.53 0.71 0.77 0.83 0.89 0.86 0.84 0.83 1.04 0.99 0.76 0.82 1.11 1.18 1.17 1.25 1.32 1.31 1.43 1.40 1.36 1.34 1.33 1.30 1.21 1.11 1.09 1.07 1.06 1.00 1.01 0.98 1.09 1.15 1.19 1.23 1.25 1.23 1.24 1.27 1.34 1.41 1.48 1.52 1.51 1.50 1.47 1.38 1.39 1.46 1.53 1.61 1.62 1.57 1.54 1.50 1.41 1.29 1.29 1.24 1.19 1.14 1.13 1.20 1.19 1.16 1.29 1.37 1.43 1.47 1.54 1.63
0.23 0.24 0.20 0.19 0.19 0.17 0.17 0.19 0.25 0.37 0.37 0.36 0.34 0.48 0.61 0.74 0.80 0.82 0.80 0.78 0.66 0.60 0.87 1.08 0.71 0.68 1.04 1.07 1.18 1.21 1.21 1.23 1.36 1.36 1.37 1.36 1.35 1.34 1.29 1.19 1.07 1.06 1.06 1.05 1.06 1.05 1.10 1.18 1.22 1.25 1.25 1.24 1.22 1.24 1.32 1.40 1.44 1.53 1.55 1.53 1.51 1.39 1.35 1.42 1.52 1.61 1.63 1.57 1.57 1.55 1.47 1.39 1.33 1.29 1.29 1.31 1.29 1.28 1.31 1.28 1.30 1.35 1.44 1.46 1.46 1.55
0.23 0.22 0.20 0.18 0.19 0.20 0.17 0.15 0.21 0.33 0.34 0.35 0.48 0.60 0.78 0.79 0.79 0.75 0.68 0.67 0.66 0.85 0.96 1.01 0.89 0.72 0.75 0.98 1.19 1.24 1.18 1.19 1.24 1.28 1.34 1.37 1.38 1.37 1.37 1.29 1.14 1.09 1.09 1.05 1.06 1.07 1.13 1.19 1.22 1.23 1.26 1.27 1.26 1.28 1.30 1.34 1.41 1.47 1.54 1.54 1.51 1.45 1.35 1.41 1.50 1.56 1.60 1.57 1.57 1.57 1.56 1.47 1.40 1.41 1.37 1.39 1.34 1.38 1.37 1.27 1.30 1.36 1.39 1.42 1.47 1.51
0.28 0.23 0.22 0.19 0.19 0.19 0.18 0.17 0.22 0.31 0.34 0.40 0.62 0.68 0.68 0.72 0.72 0.78 0.72 0.70 0.72 0.72 0.65 0.80 0.91 0.72 0.72 0.94 1.19 1.24 1.10 1.13 1.15 1.20 1.26 1.33 1.36 1.39 1.40 1.36 1.26 1.16 1.13 1.11 1.09 1.09 1.12 1.17 1.23 1.28 1.30 1.34 1.36 1.35 1.30 1.31 1.36 1.46 1.54 1.54 1.53 1.46 1.37 1.43 1.48 1.52 1.56 1.58 1.59 1.59 1.57 1.49 1.50 1.53 1.52 1.52 1.47 1.39 1.39 1.24 1.31 1.35 1.35 1.38 1.48 1.54
0.32 0.29 0.28 0.26 0.22 0.19 0.20 0.20 0.23 0.27 0.35 0.39 0.57 0.70 0.75 0.76 0.76 0.75 0.72 0.67 0.69 0.60 0.55 0.65 0.80 0.61 0.65 0.92 1.02 1.19 1.12 1.08 1.12 1.17 1.23 1.32 1.35 1.40 1.42 1.40 1.36 1.28 1.20 1.16 1.16 1.16 1.15 1.18 1.25 1.32 1.36 1.38 1.38 1.38 1.38 1.38 1.39 1.42 1.51 1.52 1.51 1.45 1.42 1.47 1.48 1.50 1.50 1.56 1.57 1.55 1.56 1.51 1.51 1.56 1.58 1.59 1.47 1.40 1.36 1.29 1.31 1.33 1.30 1.34 1.42 1.49
0.34 0.35 0.34 0.28 0.24 0.25 0.25 0.27 0.30 0.31 0.39 0.45 0.52 0.61 0.59 0.72 0.73 0.75 0.69 0.65 0.60 0.48 0.50 0.63 0.75 0.69 0.55 0.79 0.92 0.95 0.98 1.06 1.16 1.22 1.28 1.35 1.40 1.42 1.46 1.44 1.38 1.33 1.26 1.18 1.19 1.20 1.20 1.23 1.28 1.35 1.35 1.38 1.42 1.43 1.42 1.41 1.41 1.41 1.48 1.51 1.50 1.49 1.46 1.50 1.48 1.48 1.45 1.49 1.52 1.49 1.52 1.52 1.49 1.53 1.53 1.52 1.49 1.43 1.35 1.30 1.31 1.33 1.25 1.35 1.42 1.45
0.35 0.34 0.29 0.31 0.33 0.33 0.30 0.27 0.33 0.38 0.45 0.47 0.47 0.48 0.51 0.59 0.69 0.65 0.61 0.62 0.43 0.36 0.43 0.58 0.64 0.72 0.50 0.69 0.94 1.03 1.07 1.11 1.14 1.13 1.20 1.29 1.36 1.41 1.46 1.49 1.46 1.40 1.32 1.27 1.23 1.23 1.24 1.26 1.29 1.35 1.36 1.39 1.42 1.43 1.43 1.43 1.43 1.42 1.48 1.50 1.48 1.52 1.51 1.52 1.51 1.49 1.46 1.45 1.46 1.48 1.49 1.50 1.54 1.52 1.51 1.49 1.46 1.47 1.42 1.40 1.35 1.34 1.29 1.36 1.47 1.48
0.31 0.29 0.34 0.31 0.33 0.29 0.34 0.29 0.33 0.36 0.40 0.44 0.49 0.48 0.43 0.42 0.46 0.43 0.51 0.40 0.37 0.32 0.39 0.49 0.64 0.65 0.60 0.71 0.87 0.97 1.04 1.14 1.20 1.17 1.18 1.26 1.34 1.40 1.45 1.49 1.52 1.50 1.42 1.36 1.28 1.26 1.25 1.25 1.28 1.31 1.35 1.39 1.41 1.40 1.42 1.43 1.44 1.46 1.50 1.50 1.44 1.44 1.51 1.53 1.51 1.47 1.47 1.43 1.42 1.42 1.45 1.49 1.55 1.53 1.55 1.52 1.51 1.53 1.48 1.51 1.45 1.33 1.28 1.36 1.40 1.44
0.31 0.33 0.32 0.34 0.31 0.31 0.32 0.32 0.33 0.26 0.35 0.39 0.46 0.49 0.42 0.36 0.34 0.31 0.35 0.37 0.33 0.35 0.43 0.47 0.66 0.53 0.66 0.74 0.89 0.95 1.05 1.14 1.21 1.26 1.28 1.29 1.32 1.37 1.44 1.50 1.54 1.56 1.50 1.41 1.34 1.30 1.28 1.28 1.31 1.33 1.36 1.37 1.39 1.42 1.44 1.45 1.48 1.51 1.52 1.53 1.46 1.43 1.48 1.52 1.52 1.50 1.48 1.44 1.41 1.42 1.41 1.45 1.50 1.50 1.54 1.55 1.53 1.56 1.57 1.56 1.51 1.42 1.40 1.36 1.37 1.43
0.26 0.25 0.32 0.33 0.30 0.36 0.34 0.37 0.38 0.32 0.35 0.37 0.46 0.52 0.45 0.40 0.36 0.31 0.32 0.28 0.29 0.32 0.37 0.59 0.52 0.50 0.52 0.65 0.97 1.03 1.09 1.17 1.25 1.31 1.36 1.37 1.38 1.39 1.46 1.51 1.54 1.54 1.57 1.48 1.37 1.32 1.31 1.32 1.35 1.37 1.38 1.39 1.41 1.44 1.46 1.47 1.52 1.58 1.57 1.56 1.49 1.46 1.48 1.48 1.49 1.50 1.49 1.46 1.42 1.41 1.41 1.41 1.47 1.50 1.54 1.54 1.57 1.56 1.55 1.56 1.54 1.52 1.51 1.43 1.40 1.49
0.31 0.30 0.35 0.39 0.42 0.39 0.37 0.42 0.45 0.37 0.33 0.37 0.41 0.46 0.42 0.40 0.46 0.36 0.38 0.35 0.31 0.31 0.32 0.53 0.46 0.61 0.63 0.96 1.06 1.07 1.10 1.16 1.24 1.28 1.34 1.36 1.39 1.40 1.41 1.47 1.50 1.51 1.56 1.54 1.42 1.37 1.36 1.37 1.39 1.41 1.42 1.44 1.44 1.47 1.50 1.50 1.55 1.59 1.60 1.61 1.57 1.50 1.49 1.49 1.49 1.47 1.49 1.47 1.44 1.41 1.37 1.36 1.41 1.49 1.55 1.54 1.57 1.56 1.55 1.55 1.54 1.52 1.51 1.50 1.49 1.57
0.31 0.30 0.39 0.41 0.42 0.42 0.39 0.39 0.40 0.41 0.28 0.35 0.34 0.32 0.39 0.48 0.45 0.41 0.41 0.41 0.35 0.30 0.26 0.55 0.54 0.68 0.88 0.91 1.03 1.04 1.04 1.10 1.18 1.23 1.28 1.32 1.37 1.36 1.32 1.41 1.47 1.49 1.53 1.58 1.50 1.43 1.41 1.42 1.41 1.43 1.44 1.47 1.47 1.49 1.50 1.53 1.58 1.60 1.62 1.62 1.62 1.60 1.56 1.52 1.52 1.49 1.48 1.48 1.44 1.40 1.37 1.36 1.36 1.42 1.47 1.47 1.52 1.54 1.54 1.56 1.55 1.54 1.55 1.56 1.56 1.56
0.29 0.30 0.39 0.40 0.37 0.41 0.45 0.43 0.41 0.39 0.39 0.36 0.30 0.33 0.41 0.48 0.48 0.42 0.34 0.34 0.32 0.26 0.30 0.48 0.49 0.59 0.59 0.54 0.97 0.99 0.96 1.04 1.10 1.17 1.26 1.31 1.36 1.34 1.33 1.33 1.41 1.48 1.55 1.64 1.64 1.55 1.51 1.47 1.43 1.44 1.46 1.49 1.49 1.51 1.55 1.57 1.63 1.67 1.67 1.65 1.65 1.65 1.53 1.51 1.55 1.53 1.49 1.44 1.43 1.42 1.37 1.36 1.35 1.39 1.45 1.47 1.49 1.56 1.55 1.53 1.54 1.56 1.58 1.58 1.60 1.61
0.37 0.30 0.35 0.41 0.40 0.43 0.46 0.42 0.37 0.42 0.47 0.40 0.35 0.39 0.33 0.31 0.31 0.37 0.35 0.28 0.27 0.24 0.27 0.45 0.56 0.58 0.64 0.63 0.84 0.87 0.92 0.99 1.09 1.20 1.25 1.26 1.30 1.33 1.35 1.34 1.38 1.48 1.56 1.63 1.67 1.64 1.58 1.54 1.51 1.48 1.47 1.51 1.54 1.57 1.59 1.62 1.66 1.68 1.71 1.73 1.71 1.68 1.60 1.53 1.56 1.57 1.53 1.49 1.44 1.43 1.40 1.36 1.35 1.40 1.44 1.47 1.51 1.53 1.52 1.51 1.53 1.53 1.58 1.65 1.69 1.70
0.39 0.31 0.33 0.43 0.41 0.43 0.42 0.39 0.33 0.35 0.41 0.43 0.41 0.37 0.36 0.34 0.31 0.31 0.32 0.35 0.31 0.24 0.26 0.34 0.46 0.45 0.70 0.78 0.88 0.91 0.96 1.03 1.10 1.17 1.20 1.27 1.30 1.34 1.37 1.37 1.38 1.44 1.53 1.62 1.69 1.69 1.68 1.62 1.60 1.57 1.54 1.54 1.56 1.58 1.62 1.65 1.66 1.65 1.70 1.72 1.72 1.74 1.71 1.60 1.56 1.56 1.50 1.50 1.47 1.43 1.44 1.40 1.39 1.41 1.43 1.46 1.46 1.47 1.49 1.55 1.57 1.56 1.59 1.66 1.72 1.71
0.34 0.38 0.31 0.40 0.45 0.42 0.34 0.37 0.35 0.38 0.36 0.38 0.36 0.34 0.33 0.30 0.33 0.32 0.34 0.33 0.32 0.27 0.25 0.35 0.36 0.43 0.67 0.98 0.96 0.95 0.97 1.03 1.10 1.12 1.19 1.26 1.32 1.34 1.38 1.40 1.42 1.46 1.51 1.61 1.68 1.71 1.73 1.73 1.69 1.71 1.71 1.66 1.66 1.69 1.71 1.70 1.65 1.67 1.69 1.68 1.72 1.69 1.69 1.60 1.56 1.55 1.51 1.51 1.49 1.46 1.41 1.37 1.37 1.39 1.43 1.46 1.48 1.48 1.52 1.54 1.57 1.61 1.65 1.71 1.68 1.69
0.34 0.34 0.32 0.39 0.38 0.36 0.38 0.42 0.43 0.44 0.44 0.41 0.39 0.37 0.38 0.32 0.28 0.24 0.25 0.31 0.31 0.29 0.29 0.30 0.28 0.42 0.76 1.00 0.99 0.98 1.06 1.08 1.13 1.16 1.21 1.26 1.32 1.40 1.43 1.44 1.47 1.49 1.54 1.59 1.67 1.74 1.74 1.75 1.71 1.71 1.79 1.81 1.79 1.75 1.74 1.73 1.72 1.71 1.67 1.65 1.70 1.72 1.68 1.61 1.55 1.53 1.52 1.52 1.51 1.46 1.45 1.40 1.39 1.40 1.42 1.42 1.47 1.50 1.53 1.54 1.58 1.65 1.68 1.64 1.67 1.69
0.39 0.39 0.35 0.35 0.38 0.38 0.42 0.44 0.50 0.52 0.50 0.46 0.44 0.40 0.41 0.38 0.34 0.27 0.22 0.24 0.27 0.28 0.32 0.34 0.31 0.43 0.86 1.02 1.04 1.07 1.11 1.13 1.18 1.20 1.23 1.31 1.38 1.42 1.49 1.53 1.59 1.60 1.55 1.53 1.61 1.69 1.74 1.77 1.75 1.72 1.74 1.74 1.80 1.88 1.81 1.77 1.74 1.70 1.71 1.69 1.69 1.69 1.67 1.65 1.57 1.55 1.54 1.53 1.51 1.48 1.48 1.47 1.42 1.40 1.39 1.37 1.42 1.47 1.51 1.57 1.63 1.68 1.68 1.67 1.67 1.70
0.40 0.34 0.32 0.35 0.41 0.45 0.46 0.46 0.50 0.52 0.51 0.44 0.44 0.45 0.40 0.38 0.41 0.36 0.28 0.29 0.28 0.34 0.28 0.37 0.32 0.51 0.84 1.05 1.08 1.14 1.20 1.21 1.26 1.30 1.28 1.32 1.38 1.44 1.48 1.50 1.46 1.46 1.49 1.53 1.57 1.65 1.73 1.73 1.77 1.76 1.73 1.78 1.81 1.82 1.87 1.86 1.82 1.78 1.75 1.72 1.69 1.66 1.68 1.68 1.64 1.59 1.56 1.54 1.53 1.54 1.52 1.49 1.48 1.44 1.40 1.35 1.40 1.42 1.49 1.59 1.64 1.68 1.70 1.76 1.80 1.73
0.30 0.33 0.33 0.31 0.33 0.37 0.41 0.43 0.43 0.50 0.50 0.46 0.45 0.47 0.48 0.48 0.46 0.38 0.34 0.35 0.27 0.37 0.40 0.31 0.29 0.45 0.83 1.08 1.13 1.15 1.18 1.13 1.20 1.30 1.35 1.33 1.40 1.44 1.50 1.55 1.56 1.55 1.56 1.61 1.63 1.62 1.68 1.73 1.72 1.72 1.72 1.73 1.77 1.81 1.84 1.88 1.87 1.83 1.79 1.78 1.71 1.69 1.72 1.73 1.69 1.60 1.57 1.56 1.54 1.55 1.53 1.53 1.53 1.48 1.44 1.40 1.40 1.43 1.48 1.53 1.59 1.63 1.67 1.75 1.80 1.77
0.27 0.29 0.32 0.28 0.27 0.27 0.30 0.32 0.33 0.39 0.44 0.47 0.48 0.49 0.53 0.49 0.42 0.39 0.34 0.36 0.31 0.45 0.50 0.37 0.41 0.65 0.93 1.02 0.99 1.06 1.11 1.15 1.24 1.35 1.39 1.37 1.37 1.44 1.49 1.55 1.61 1.59 1.60 1.62 1.64 1.68 1.68 1.71 1.74 1.74 1.74 1.75 1.77 1.80 1.85 1.94 1.96 1.89 1.85 1.83 1.79 1.75 1.78 1.80 1.77 1.66 1.60 1.59 1.55 1.54 1.54 1.56 1.58 1.52 1.48 1.48 1.46 1.47 1.51 1.54 1.56 1.58 1.60 1.65 1.69 1.73
0.28 0.27 0.29 0.32 0.31 0.31 0.36 0.43 0.48 0.51 0.49 0.42 0.45 0.53 0.54 0.56 0.55 0.52 0.47 0.39 0.35 0.49 0.45 0.54 0.62 0.72 0.77 0.81 0.89 1.04 1.13 1.14 1.19 1.26 1.30 1.29 1.31 1.39 1.49 1.54 1.60 1.63 1.65 1.65 1.67 1.72 1.74 1.70 1.72 1.79 1.80 1.83 1.89 1.92 1.94 1.97 2.00 1.95 1.91 1.88 1.88 1.86 1.86 1.86 1.79 1.71 1.65 1.63 1.60 1.56 1.56 1.60 1.62 1.63 1.59 1.56 1.54 1.55 1.55 1.56 1.56 1.54 1.54 1.59 1.60 1.62
0.28 0.25 0.28 0.31 0.33 0.35 0.39 0.43 0.48 0.50 0.47 0.48 0.51 0.54 0.56 0.56 0.56 0.50 0.45 0.44 0.55 0.43 0.35 0.60 0.71 0.60 0.67 0.76 0.83 0.92 1.01 1.09 1.16 1.21 1.26 1.28 1.31 1.36 1.42 1.49 1.56 1.58 1.62 1.67 1.69 1.69 1.75 1.82 1.83 1.81 1.86 1.91 1.92 1.98 2.05 2.16 2.16 2.15 2.06 1.97 1.99 2.03 2.02 1.94 1.80 1.73 1.71 1.68 1.68 1.66 1.66 1.71 1.75 1.69 1.67 1.66 1.62 1.58 1.57 1.57 1.57 1.55 1.55 1.57 1.57 1.59
0.28 0.24 0.31 0.30 0.32 0.36 0.39 0.39 0.45 0.51 0.50 0.50 0.52 0.57 0.56 0.57 0.54 0.50 0.54 0.56 0.54 0.44 0.44 0.62 0.67 0.58 0.68 0.77 0.85 0.91 1.00 1.07 1.11 1.19 1.26 1.31 1.34 1.39 1.43 1.44 1.45 1.53 1.57 1.58 1.60 1.60 1.64 1.72 1.90 1.93 1.87 1.92 1.97 1.95 2.01 2.09 2.11 2.14 2.19 2.18 2.18 2.09 2.10 2.06 1.95 1.91 1.83 1.75 1.73 1.73 1.74 1.82 1.89 1.80 1.73 1.73 1.70 1.66 1.62 1.60 1.60 1.60 1.60 1.59 1.58 1.61
0.32 0.27 0.29 0.31 0.29 0.32 0.37 0.39 0.42 0.46 0.51 0.49 0.52 0.59 0.61 0.58 0.57 0.59 0.62 0.67 0.62 0.61 0.70 0.71 0.70 0.65 0.74 0.80 0.91 0.99 1.11 1.11 1.14 1.21 1.25 1.25 1.25 1.32 1.35 1.35 1.37 1.46 1.51 1.54 1.59 1.66 1.66 1.70 1.83 1.89 1.91 1.92 1.99 1.96 2.01 2.04 2.02 2.05 2.05 2.07 2.10 2.09 2.16 2.10 2.00 1.95 1.94 1.87 1.79 1.85 1.85 1.83 1.87 1.83 1.87 1.81 1.75 1.75 1.73 1.69 1.67 1.63 1.63 1.64 1.65 1.66
0.31 0.31 0.32 0.32 0.28 0.28 0.34 0.40 0.42 0.43 0.52 0.49 0.54 0.60 0.62 0.63 0.61 0.62 0.65 0.69 0.69 0.68 0.70 0.69 0.67 0.65 0.83 0.96 0.99 1.09 1.07 1.07 1.12 1.13 1.16 1.21 1.26 1.28 1.30 1.33 1.42 1.48 1.61 1.58 1.61 1.63 1.66 1.76 1.79 1.83 1.87 1.94 1.97 2.07 2.09 2.04 2.06 2.07 2.08 2.10 2.09 2.08 2.10 2.11 2.10 2.05 1.97 1.98 1.98 1.88 1.90 1.89 1.90 1.93 1.94 1.96 1.85 1.80 1.83 1.80 1.78 1.72 1.67 1.67 1.70 1.71
0.29 0.31 0.33 0.33 0.27 0.26 0.35 0.38 0.41 0.48 0.50 0.53 0.52 0.54 0.60 0.59 0.56 0.62 0.59 0.67 0.63 0.58 0.60 0.61 0.57 0.62 0.80 0.95 1.03 1.02 0.99 0.97 0.94 1.04 1.12 1.17 1.24 1.27 1.26 1.31 1.37 1.46 1.53 1.58 1.61 1.65 1.64 1.66 1.73 1.77 1.86 1.90 1.92 2.01 2.10 2.11 2.13 2.10 2.06 2.09 2.09 2.08 2.07 2.09 2.13 2.12 2.09 2.08 2.03 1.98 1.92 1.90 1.90 1.90 1.96 2.01 1.94 1.82 1.81 1.86 1.84 1.77 1.71 1.69 1.71 1.75
0.26 0.28 0.27 0.32 0.25 0.26 0.35 0.39 0.38 0.45 0.44 0.44 0.51 0.57 0.66 0.64 0.66 0.68 0.70 0.72 0.71 0.72 0.58 0.53 0.56 0.74 0.83 0.92 0.86 0.90 0.95 0.94 0.95 1.01 1.08 1.13 1.19 1.21 1.21 1.24 1.31 1.39 1.49 1.53 1.55 1.58 1.61 1.67 1.73 1.79 1.89 1.93 1.92 1.98 2.07 2.11 2.11 2.11 2.11 2.10 2.10 2.06 2.01 2.00 2.02 2.07 2.02 2.05 2.10 2.04 1.98 1.94 1.92 1.94 1.97 2.03 2.01 1.88 1.82 1.84 1.87 1.82 1.72 1.64 1.68 1.71
0.29 0.29 0.30 0.34 0.26 0.27 0.34 0.36 0.39 0.36 0.31 0.40 0.64 0.68 0.71 0.63 0.62 0.59 0.62 0.69 0.75 0.75 0.69 0.77 0.76 0.84 0.87 0.87 0.82 0.86 0.89 0.90 0.99 1.09 1.19 1.18 1.17 1.19 1.25 1.30 1.35 1.39 1.45 1.51 1.56 1.61 1.64 1.68 1.74 1.79 1.81 1.88 1.95 1.97 2.04 2.11 2.11 2.11 2.12 2.13 2.14 2.07 2.05 2.03 2.01 1.96 1.93 2.03 2.08 2.08 2.04 2.00 1.96 1.95 1.96 2.04 2.08 2.00 1.88 1.81 1.82 1.85 1.84 1.77 1.72 1.69
0.25 0.25 0.25 0.31 0.27 0.28 0.34 0.35 0.32 0.29 0.35 0.58 0.71 0.76 0.81 0.72 0.71 0.68 0.73 0.78 0.81 0.86 0.86 0.82 0.83 0.83 0.85 0.88 0.88 0.91 0.98 1.05 1.09 1.09 1.12 1.18 1.19 1.17 1.18 1.25 1.32 1.40 1.45 1.49 1.52 1.58 1.64 1.64 1.68 1.74 1.78 1.82 1.91 1.98 1.99 2.01 2.07 2.09 2.09 2.10 2.08 2.09 2.05 2.01 2.00 1.96 1.94 2.02 2.05 2.07 2.07 2.04 1.98 1.90 1.87 1.91 1.99 2.02 1.99 1.95 1.90 1.87 1.90 1.93 1.88 1.84
0.25 0.22 0.24 0.27 0.30 0.32 0.32 0.33 0.25 0.32 0.51 0.60 0.64 0.72 0.84 0.80 0.71 0.65 0.65 0.76 0.82 0.82 0.84 0.81 0.85 0.88 0.88 0.88 0.92 0.94 0.95 1.00 1.07 1.12 1.13 1.15 1.18 1.18 1.18 1.18 1.23 1.31 1.36 1.46 1.49 1.54 1.60 1.67 1.71 1.71 1.73 1.81 1.84 1.87 1.89 1.95 2.03 2.02 2.01 2.06 2.03 2.04 2.03 1.99 1.95 1.94 1.97 2.00 2.03 2.04 2.03 1.96 1.89 1.86 1.92 1.96 1.96 1.94 1.97 2.04 2.05 2.01 2.01 1.99 1.92 1.94
0.28 0.24 0.23 0.26 0.34 0.28 0.32 0.34 0.34 0.49 0.49 0.53 0.55 0.61 0.70 0.64 0.61 0.57 0.51 0.66 0.82 0.85 0.84 0.81 0.86 0.87 0.88 0.88 0.90 0.91 0.92 0.93 0.90 0.96 1.12 1.15 1.16 1.17 1.15 1.18 1.25 1.28 1.33 1.40 1.46 1.49 1.57 1.64 1.66 1.70 1.75 1.79 1.82 1.80 1.84 1.89 1.91 1.92 1.92 1.91 1.91 1.94 1.94 1.91 1.88 1.89 1.92 1.93 1.99 2.00 2.01 2.01 1.98 1.94 1.90 1.89 1.86 1.87 1.93 1.99 2.03 2.08 2.11 2.05 2.04 1.99
0.28 0.20 0.24 0.24 0.30 0.35 0.30 0.32 0.35 0.35 0.33 0.44 0.59 0.70 0.76 0.80 0.78 0.74 0.65 0.62 0.83 0.87 0.89 0.84 0.81 0.84 0.85 0.88 0.88 0.89 0.89 0.74 0.68 0.81 1.03 1.11 1.14 1.12 1.14 1.18 1.25 1.31 1.32 1.35 1.42 1.47 1.52 1.59 1.65 1.67 1.66 1.68 1.74 1.80 1.82 1.82 1.84 1.84 1.83 1.83 1.87 1.87 1.87 1.86 1.84 1.89 1.91 1.92 1.96 1.97 1.99 2.00 1.97 1.93 1.91 1.87 1.84 1.88 1.93 1.99 2.03 2.07 2.19 2.11 2.06 2.04
0.26 0.26 0.26 0.23 0.27 0.28 0.29 0.27 0.29 0.27 0.35 0.53 0.58 0.65 0.75 0.79 0.77 0.73 0.59 0.52 0.78 0.86 0.85 0.84 0.79 0.84 0.85 0.84 0.85 0.88 0.75 0.59 0.62 0.77 0.99 1.11 1.12 1.13 1.10 1.11 1.18 1.25 1.31 1.33 1.33 1.35 1.39 1.46 1.54 1.59 1.59 1.58 1.57 1.61 1.69 1.71 1.73 1.76 1.72 1.74 1.76 1.79 1.78 1.80 1.83 1.84 1.85 1.91 1.96 1.99 2.01 2.00 1.97 1.93 1.90 1.89 1.92 1.95 1.93 1.95 1.98 2.04 2.11 2.14 2.13 2.08
0.30 0.31 0.27 0.24 0.25 0.28 0.27 0.26 0.28 0.36 0.36 0.50 0.59 0.65 0.72 0.76 0.73 0.61 0.40 0.45 0.73 0.86 0.86 0.83 0.80 0.80 0.83 0.87 0.88 0.85 0.72 0.59 0.65 0.82 1.01 1.08 1.12 1.15 1.13 1.11 1.15 1.19 1.23 1.27 1.31 1.35 1.35 1.37 1.39 1.43 1.47 1.50 1.53 1.58 1.60 1.64 1.66 1.65 1.64 1.67 1.70 1.68 1.67 1.70 1.74 1.78 1.78 1.81 1.87 1.92 1.96 1.99 1.96 1.96 1.95 1.94 1.95 1.96 1.96 2.02 2.04 2.04 2.05 2.07 2.07 2.06
0.33 0.32 0.31 0.27 0.27 0.31 0.31 0.32 0.36 0.39 0.50 0.57 0.59 0.63 0.67 0.72 0.61 0.42 0.35 0.56 0.77 0.85 0.87 0.87 0.83 0.85 0.86 0.85 0.86 0.76 0.82 0.85 0.87 0.95 1.04 1.10 1.07 1.09 1.11 1.13 1.15 1.19 1.21 1.24 1.25 1.30 1.31 1.33 1.33 1.31 1.34 1.39 1.44 1.49 1.52 1.55 1.56 1.55 1.57 1.58 1.57 1.59 1.66 1.72 1.77 1.78 1.80 1.82 1.82 1.83 1.85 1.88 1.93 1.94 1.97 1.98 1.96 2.01 2.06 2.07 2.07 2.10 2.06 2.02 2.05 2.08
0.32 0.33 0.35 0.33 0.29 0.29 0.34 0.32 0.34 0.41 0.52 0.60 0.63 0.61 0.64 0.52 0.36 0.35 0.62 0.78 0.79 0.80 0.84 0.85 0.79 0.82 0.85 0.83 0.83 0.83 0.87 0.95 0.95 0.97 1.00 1.03 1.03 1.07 1.09 1.10 1.11 1.14 1.18 1.21 1.23 1.23 1.24 1.25 1.26 1.27 1.30 1.33 1.35 1.38 1.40 1.41 1.39 1.43 1.50 1.52 1.50 1.56 1.65 1.68 1.71 1.74 1.80 1.79 1.78 1.76 1.75 1.76 1.82 1.87 1.90 1.94 1.94 1.92 1.92 1.99 2.06 2.04 1.99 2.00 1.97 1.99
0.33 0.29 0.30 0.29 0.34 0.34 0.32 0.30 0.29 0.25 0.51 0.62 0.60 0.54 0.59 0.43 0.49 0.65 0.73 0.80 0.85 0.79 0.77 0.78 0.79 0.78 0.82 0.78 0.85 0.86 0.89 0.91 0.93 0.94 0.96 0.98 0.99 1.02 1.04 1.06 1.06 1.08 1.11 1.12 1.12 1.14 1.13 1.13 1.15 1.17 1.20 1.25 1.27 1.28 1.27 1.24 1.18 1.16 1.22 1.29 1.40 1.53 1.60 1.63 1.64 1.65 1.65 1.62 1.58 1.60 1.63 1.66 1.69 1.72 1.77 1.79 1.81 1.80 1.79 1.85 1.89 1.91 1.96 1.94 1.92 1.92
0.38 0.27 0.28 0.32 0.38 0.31 0.31 0.27 0.29 0.41 0.54 0.61 0.52 0.42 0.54 0.56 0.64 0.70 0.71 0.69 0.78 0.75 0.71 0.72 0.77 0.79 0.81 0.79 0.80 0.84 0.87 0.89 0.91 0.95 0.95 0.96 0.97 0.98 0.99 1.01 1.03 1.06 1.08 1.10 1.09 1.06 1.01 0.95 0.96 0.97 0.99 1.03 1.06 1.09 1.09 1.05 0.99 0.99 0.97 0.99 1.10 1.19 1.27 1.36 1.46 1.52 1.52 1.52 1.49 1.49 1.51 1.54 1.58 1.62 1.65 1.67 1.69 1.71 1.72 1.72 1.74 1.77 1.80 1.83 1.89 1.86
0.43 0.34 0.36 0.31 0.42 0.35 0.33 0.39 0.52 0.59 0.61 0.63 0.60 0.56 0.61 0.65 0.70 0.71 0.71 0.68 0.64 0.65 0.72 0.68 0.70 0.77 0.80 0.79 0.79 0.81 0.79 0.85 0.87 0.92 0.92 0.94 0.95 0.94 0.93 0.93 0.94 0.94 0.95 0.95 0.94 0.95 0.93 0.89 0.86 0.87 0.89 0.93 0.93 0.93 0.92 0.92 0.88 0.89 0.93 1.01 1.08 1.04 1.03 1.03 1.06 1.12 1.22 1.29 1.34 1.39 1.41 1.44 1.47 1.52 1.57 1.59 1.60 1.58 1.60 1.63 1.67 1.66 1.69 1.73 1.74 1.79
0.50 0.50 0.50 0.43 0.40 0.48 0.51 0.51 0.55 0.54 0.56 0.59 0.64 0.65 0.62 0.65 0.71 0.68 0.63 0.56 0.59 0.63 0.67 0.64 0.68 0.73 0.77 0.79 0.76 0.76 0.78 0.80 0.84 0.87 0.90 0.93 0.92 0.92 0.91 0.87 0.84 0.84 0.85 0.87 0.89 0.93 0.94 0.95 0.94 0.91 0.89 0.91 0.93 0.92 0.93 0.91 0.90 0.85 0.88 0.98 1.02 1.04 1.03 1.00 0.95 0.95 0.98 1.04 1.10 1.16 1.20 1.23 1.27 1.32 1.41 1.47 1.49 1.48 1.50 1.53 1.58 1.59 1.62 1.70 1.71 1.69
0.49 0.50 0.48 0.43 0.51 0.42 0.36 0.53 0.51 0.53 0.57 0.58 0.61 0.66 0.69 0.70 0.67 0.66 0.63 0.63 0.67 0.70 0.72 0.75 0.76 0.75 0.77 0.78 0.76 0.74 0.73 0.79 0.78 0.81 0.86 0.86 0.86 0.85 0.82 0.78 0.77 0.77 0.79 0.81 0.88 0.93 0.95 0.96 0.95 0.93 0.91 0.88 0.93 0.93 0.92 0.89 0.89 0.89 0.91 0.93 0.95 0.97 0.99 0.97 0.94 0.93 0.93 0.92 0.94 0.99 1.02 1.02 1.02 1.08 1.18 1.31 1.39 1.43 1.41 1.37 1.39 1.44 1.50 1.63 1.68 1.71
0.42 0.55 0.46 0.47 0.46 0.42 0.43 0.54 0.58 0.61 0.61 0.62 0.62 0.60 0.61 0.65 0.68 0.70 0.69 0.71 0.71 0.74 0.74 0.77 0.81 0.79 0.80 0.77 0.78 0.76 0.75 0.75 0.74 0.77 0.79 0.81 0.82 0.81 0.78 0.75 0.73 0.75 0.81 0.86 0.89 0.91 0.91 0.93 0.93 0.92 0.90 0.87 0.90 0.92 0.90 0.87 0.90 0.97 0.99 0.98 0.98 0.98 0.98 0.96 0.93 0.90 0.93 0.96 0.99 1.00 1.02 1.03 1.03 1.02 1.00 1.03 1.11 1.20 1.24 1.30 1.25 1.32 1.33 1.41 1.53 1.60
0.50 0.51 0.41 0.48 0.45 0.53 0.58 0.59 0.60 0.63 0.63 0.64 0.67 0.70 0.71 0.71 0.70 0.70 0.73 0.71 0.73 0.71 0.72 0.77 0.81 0.76 0.79 0.77 0.83 0.80 0.77 0.78 0.76 0.76 0.76 0.79 0.79 0.79 0.77 0.76 0.76 0.78 0.84 0.86 0.89 0.91 0.86 0.84 0.86 0.88 0.87 0.87 0.89 0.89 0.90 0.88 0.87 0.89 0.96 1.00 1.02 1.00 0.97 0.94 0.93 0.92 0.94 0.96 0.96 0.95 0.99 0.99 1.01 1.02 1.01 1.00 1.02 1.04 1.06 1.09 1.10 1.16 1.32 1.37 1.41 1.50
0.44 0.38 0.49 0.48 0.41 0.39 0.39 0.48 0.54 0.43 0.44 0.56 0.62 0.66 0.68 0.72 0.71 0.71 0.71 0.71 0.70 0.70 0.73 0.71 0.73 0.80 0.80 0.82 0.83 0.83 0.78 0.78 0.79 0.78 0.76 0.78 0.78 0.78 0.78 0.75 0.74 0.77 0.81 0.90 0.92 0.91 0.89 0.87 0.84 0.81 0.82 0.86 0.87 0.88 0.87 0.88 0.91 0.93 0.93 0.94 0.95 0.96 0.95 0.96 0.93 0.89 0.89 0.93 0.93 0.93 0.91 0.92 0.96 1.00 1.02 1.02 1.00 1.00 1.05 1.10 1.06 1.06 1.13 1.23 1.34 1.42
0.40 0.43 0.41 0.38 0.37 0.37 0.49 0.56 0.58 0.56 0.55 0.58 0.62 0.67 0.69 0.71 0.70 0.68 0.67 0.67 0.68 0.68 0.69 0.66 0.66 0.69 0.72 0.76 0.81 0.76 0.77 0.78 0.77 0.77 0.74 0.75 0.79 0.82 0.82 0.81 0.79 0.77 0.78 0.85 0.86 0.86 0.87 0.88 0.87 0.82 0.79 0.79 0.81 0.82 0.82 0.82 0.85 0.89 0.92 0.96 0.97 0.96 0.96 0.94 0.91 0.91 0.91 0.95 0.94 0.95 0.94 0.91 0.92 0.97 0.98 0.99 1.02 1.02 1.00 1.01 1.10 1.11 1.07 1.08 1.19 1.25
Wind_Speed
18 17 18 20 21 21 19 17 16 15 14 13 13 12 12 13 12 10 9 9 11 10 11 11 11 11 12 13 13 13 14 14 13 14 16 17 19 17 16 17 17 15 15 15 15 14 14 16 15 14 14 13 13 13 13 12 11 11 11 11 12 12 12 12 11 11 12 12 12 12 12 12 12 12 12 12 12 13 13 13 13 13 13 13 13 12
17 18 19 21 22 23 21 19 17 16 16 15 13 12 12 12 12 10 9 10 11 10 10 12 10 10 11 13 13 13 13 14 13 13 15 18 20 18 17 18 17 15 15 16 15 14 15 17 16 15 14 14 14 13 13 13 12 11 11 11 12 12 12 11 11 12 12 12 12 12 12 12 12 12 12 12 12 12 12 13 14 13 13 12 12 12
17 19 20 21 22 22 22 21 19 17 17 16 14 13 12 12 11 9 9 11 11 10 11 12 10 11 12 14 15 14 14 15 15 14 15 16 19 19 18 18 18 16 16 17 16 15 16 17 17 16 15 15 14 14 14 13 12 12 11 11 12 12 12 12 12 12 12 12 12 12 12 12 12 12 11 11 12 12 12 13 13 13 13 12 11 11
16 18 19 20 20 21 21 22 20 18 18 17 15 14 13 13 13 10 10 12 11 10 11 11 10 11 12 14 16 17 16 16 16 16 15 16 17 18 18 19 19 18 17 18 17 16 17 18 17 17 16 15 15 14 14 13 13 12 12 12 12 12 12 12 12 12 12 12 12 11 11 11 12 12 11 11 11 11 12 12 12 13 12 12 11 10
16 16 16 18 19 20 21 21 21 19 17 16 16 16 15 15 15 11 10 11 10 9 10 11 10 10 11 13 16 18 17 17 17 17 16 17 17 16 17 19 20 19 18 18 18 17 18 19 18 17 16 16 15 15 14 14 13 13 12 12 12 12 12 12 12 12 12 12 12 11 11 12 12 11 11 11 11 11 11 12 12 12 12 11 11 10
17 17 16 16 18 19 20 21 21 19 17 15 16 17 17 17 15 12 11 11 10 11 12 12 10 10 12 14 16 17 18 19 18 18 18 18 18 17 17 19 20 20 19 19 19 18 19 19 18 17 17 16 16 16 15 15 14 13 13 13 12 12 13 13 13 13 12 11 12 12 11 12 12 11 11 11 11 11 11 11 11 11 11 11 11 10
15 17 16 17 18 19 19 20 21 20 17 15 15 17 17 16 15 15 13 11 11 10 12 14 10 8 11 14 15 16 18 21 19 19 21 20 19 19 18 19 20 20 20 20 20 19 19 19 19 18 17 16 16 16 16 15 15 14 14 13 13 13 13 13 13 13 12 12 12 12 12 11 11 11 11 11 11 10 10 10 11 11 10 10 10 10
12 13 15 17 18 18 19 20 21 20 18 16 15 14 15 16 16 16 14 11 11 9 10 14 11 7 10 13 13 14 16 20 22 21 21 22 21 20 20 20 20 20 21 21 20 20 20 19 20 19 18 17 17 16 16 16 15 15 14 14 13 13 14 14 14 13 12 12 12 12 12 11 11 11 11 10 10 10 9 10 10 10 10 10 10 9
10 12 14 15 17 18 19 19 20 20 18 16 15 14 15 16 16 16 13 11 10 8 9 14 12 7 9 10 12 13 14 17 22 23 23 23 23 22 21 21 20 21 22 22 21 21 21 20 20 19 18 18 17 17 17 16 15 15 15 14 14 14 14 14 14 13 13 13 12 12 12 12 11 11 11 10 10 9 9 10 10 9 9 10 9 9
10 13 14 15 16 18 18 18 20 21 19 16 15 15 14 13 14 14 13 13 11 10 11 15 14 9 8 10 12 13 14 15 18 21 22 24 25 24 23 22 21 21 22 23 21 22 22 21 21 20 19 19 18 18 17 16 16 16 15 15 15 15 15 15 14 14 14 13 13 12 12 12 12 11 11 11 10 10 10 10 10 9 9 9 9 9
11 13 13 14 15 17 17 17 19 20 19 17 14 14 14 12 13 13 13 12 10 10 13 15 16 12 8 11 14 13 13 14 15 17 20 23 24 25 25 24 23 21 22 23 22 22 22 22 21 21 20 19 19 18 18 17 16 16 16 16 16 16 16 15 15 14 14 13 13 12 12 12 12 12 12 11 11 10 10 10 10 9 9 9 9 9
8 10 12 13 14 15 14 14 16 16 17 17 15 15 13 11 12 13 12 12 11 11 13 14 17 15 10 11 14 14 13 12 13 15 17 21 23 25 25 26 25 23 23 23 23 22 23 22 22 22 21 20 19 19 19 18 17 17 17 17 16 16 16 16 15 15 14 13 13 13 13 13 12 12 12 12 11 11 10 10 10 9 10 9 9 8
7 9 11 12 13 14 13 13 15 15 15 15 15 15 14 12 12 13 12 13 13 13 12 13 17 15 12 11 13 15 15 12 13 14 16 20 22 24 25 26 26 24 23 24 23 23 23 22 22 22 21 21 20 19 19 19 18 18 17 17 17 17 17 17 16 15 15 14 14 14 14 13 13 12 12 12 12 11 10 11 10 10 10 10 9 9
6 8 8 8 10 13 14 15 15 15 14 14 15 16 15 13 13 13 13 12 12 12 10 12 15 13 12 11 11 15 16 13 13 13 15 18 22 23 23 25 27 26 24 24 24 23 23 23 23 23 22 21 21 20 20 19 19 18 18 18 17 17 17 17 16 16 15 15 14 14 14 14 13 13 13 13 12 12 11 11 11 10 10 10 10 9
6 7 7 7 8 11 14 15 15 16 15 15 17 17 15 14 13 14 14 12 12 10 8 11 14 12 11 10 10 12 14 14 12 12 14 17 20 22 22 23 27 27 25 24 24 24 24 24 24 23 22 22 21 21 20 20 20 19 19 18 18 17 17 17 17 17 16 15 15 15 15 14 14 13 13 13 13 12 12 11 11 10 10 10 10 9
7 8 8 7 8 10 12 14 14 14 14 14 16 16 16 16 15 14 13 13 12 10 9 12 12 11 12 10 8 9 11 12 11 11 13 15 18 20 21 22 26 27 26 24 24 24 24 25 24 24 23 22 22 22 21 21 21 20 19 19 18 18 18 18 17 17 17 16 16 15 15 15 14 14 13 13 13 12 12 12 11 11 10 10 10 9
6 8 8 6 7 9 11 13 14 14 15 13 13 16 17 16 14 14 13 12 11 10 10 11 10 10 10 9 7 7 9 10 11 11 13 15 17 19 20 22 25 26 25 24 24 24 24 25 24 24 24 23 22 22 22 22 21 21 20 20 19 18 18 18 18 18 17 17 17 16 16 15 15 14 14 14 13 13 12 12 11 11 11 10 10 10
7 9 8 6 6 7 9 12 13 13 13 13 13 15 16 15 14 14 14 12 10 11 11 9 9 10 10 10 9 8 8 10 11 11 12 15 17 18 19 21 24 25 24 24 24 24 24 25 25 25 25 24 23 23 23 23 22 21 21 21 20 19 19 19 19 18 18 17 17 17 17 16 16 15 14 14 14 14 13 12 12 11 11 11 10 10
6 8 9 7 6 7 7 10 12 11 11 12 13 13 13 13 14 15 15 13 12 12 11 9 10 12 11 11 10 8 9 10 10 11 12 14 17 18 19 21 23 24 23 23 24 24 24 25 25 25 25 24 24 24 24 23 22 22 22 21 21 20 19 19 19 19 18 18 18 18 17 17 17 16 15 15 15 14 14 13 12 12 12 11 11 11
6 7 10 9 7 7 8 9 10 10 11 11 11 11 11 13 15 15 15 15 13 13 12 10 10 12 12 12 11 10 11 10 10 11 12 14 16 17 18 20 21 23 22 22 23 24 24 25 26 26 26 25 25 24 25 24 23 23 22 22 21 21 20 20 20 20 19 19 19 19 18 18 17 17 16 16 15 15 15 14 13 13 12 12 11 11
6 7 9 10 8 6 8 9 9 9 10 10 10 9 10 11 13 14 14 15 15 13 12 11 10 11 12 12 12 11 11 10 11 11 12 13 15 17 18 19 21 23 22 22 23 24 23 24 24 25 25 25 25 25 25 25 24 24 23 23 22 22 21 21 21 20 20 20 19 19 19 19 19 18 17 16 16 16 15 15 14 14 13 13 12 12
6 7 9 10 9 7 8 9 10 10 10 11 10 8 9 10 11 13 13 14 16 14 13 13 12 12 12 11 11 12 12 10 9 10 10 11 13 15 16 17 18 20 22 23 23 23 23 22 23 24 25 25 25 26 26 26 25 25 24 23 23 23 22 22 22 21 21 20 20 20 20 20 20 19 18 18 17 17 16 15 15 14 14 13 13 13
6 7 9 11 10 10 10 10 9 9 9 11 10 7 9 9 9 12 13 13 14 13 12 12 12 12 13 11 10 12 12 10 8 8 8 8 10 12 14 15 16 17 20 22 23 24 24 23 23 25 26 26 26 26 26 26 26 26 25 24 24 24 23 23 23 22 22 21 21 21 21 20 20 20 19 19 18 18 17 16 16 15 15 14 14 14
6 6 8 11 12 11 11 9 8 8 8 9 8 5 6 8 9 12 14 12 11 11 11 10 11 13 13 11 10 11 11 10 9 9 9 9 10 11 13 16 17 18 19 20 22 23 24 25 24 24 26 26 27 27 27 27 27 27 26 26 25 25 24 24 24 23 23 22 22 21 21 21 21 21 20 20 19 19 18 17 16 16 16 15 15 15
6 6 7 8 10 10 9 8 8 8 7 8 8 5 4 6 8 11 12 11 10 11 11 11 11 13 13 11 10 10 10 10 10 10 10 10 10 11 13 14 16 18 18 19 21 23 23 24 24 25 26 27 28 29 28 28 28 27 27 27 26 26 25 24 24 24 24 23 22 22 21 21 21 21 21 21 20 20 19 19 18 17 17 16 16 15
6 7 6 7 9 10 11 11 10 9 8 8 6 4 3 3 6 8 10 10 11 11 11 11 11 13 12 11 11 10 10 10 10 10 10 10 10 11 12 13 14 15 15 16 18 20 22 23 24 25 26 27 28 28 28 29 30 29 28 28 27 27 26 25 25 24 24 24 23 22 22 22 21 21 21 21 21 20 20 20 19 18 18 17 17 16
6 6 7 8 10 10 12 14 13 10 9 8 5 3 3 3 5 7 8 10 12 11 10 10 12 12 11 11 11 10 9 9 9 10 10 10 10 11 12 13 13 14 14 14 15 17 19 21 24 25 26 26 27 26 27 28 29 30 30 29 28 27 26 26 25 25 25 24 24 23 22 22 21 21 21 21 21 21 21 20 20 19 19 18 18 17
5 7 8 9 10 11 11 14 15 13 11 9 5 3 4 4 4 6 7 10 13 12 11 11 12 12 11 11 11 10 10 10 9 9 9 10 11 11 12 13 13 13 14 14 15 15 17 18 21 24 25 26 26 26 26 27 27 27 27 27 27 26 26 26 25 26 26 25 24 23 22 22 21 20 20 20 20 21 21 21 20 20 20 19 19 19
5 8 10 9 10 11 11 11 13 15 14 11 7 5 4 4 5 5 5 9 11 12 13 12 11 10 11 11 10 10 10 10 9 8 8 9 9 10 11 11 11 11 12 13 14 15 16 17 18 21 24 25 26 26 27 28 27 25 24 24 24 24 24 24 25 25 25 25 24 23 23 22 21 21 20 20 21 21 21 21 21 21 21 20 20 20
4 7 9 9 9 11 11 10 10 13 15 12 9 7 5 5 5 5 5 7 9 11 13 11 9 10 11 10 10 10 10 9 9 8 8 8 9 9 9 9 9 10 12 13 14 14 14 15 16 18 21 23 25 26 27 28 28 27 25 24 24 23 23 22 23 24 24 24 24 24 23 23 22 21 20 20 21 21 21 21 21 21 21 21 21 21
4 6 8 8 8 10 11 10 8 10 14 13 10 8 6 6 6 6 7 7 9 10 11 10 10 11 12 11 10 10 9 8 8 8 9 9 9 8 7 7 8 9 10 11 12 13 14 13 13 14 17 19 21 24 25 27 27 26 25 24 23 23 23 22 21 22 23 23 23 24 23 23 22 22 20 20 20 21 21 21 20 20 20 21 21 21
4 5 6 6 7 10 11 9 7 8 12 12 10 8 7 7 7 7 8 8 9 11 11 10 11 13 13 12 10 9 8 8 8 9 9 9 9 8 7 7 7 7 8 9 10 11 12 12 11 12 13 14 16 20 24 25 25 24 24 24 23 23 23 22 21 22 23 23 23 23 23 23 22 22 21 20 20 20 20 20 20 20 20 20 20 21
4 4 5 5 6 9 10 9 9 8 9 11 12 11 10 9 8 7 8 8 9 11 12 11 13 14 13 12 11 10 10 9 9 9 10 10 10 9 8 7 7 7 7 8 9 10 11 11 11 10 11 11 12 16 20 23 24 23 23 23 23 23 23 23 22 22 23 22 22 22 23 23 23 23 23 22 22 21 20 20 21 21 21 21 21 21
4 3 4 5 6 9 10 9 8 8 9 12 14 13 12 11 9 8 8 9 9 10 11 11 13 13 12 12 11 11 11 11 10 10 10 11 11 11 10 9 8 7 7 7 8 9 10 10 10 10 10 10 10 12 16 19 21 22 22 21 22 22 22 22 21 21 22 21 21 21 22 23 24 24 24 25 24 23 23 22 22 22 22 22 21 21
4 3 4 5 5 7 8 7 7 9 11 12 12 12 12 11 10 10 9 8 9 9 10 11 12 12 12 12 11 11 11 11 11 10 9 10 11 11 10 10 9 8 7 7 7 8 9 9 8 8 8 8 9 10 12 16 18 19 20 19 19 20 21 21 20 20 20 20 20 20 21 22 23 24 25 26 26 26 25 24 24 24 24 23 23 22
3 3 3 4 4 6 6 6 8 11 11 10 9 11 12 11 11 11 10 10 10 10 11 12 12 12 12 12 12 12 12 12 11 10 10 10 10 10 10 10 10 10 9 8 7 8 8 8 8 7 7 7 8 9 9 12 14 16 16 16 17 18 18 18 18 18 19 19 19 19 19 20 21 22 23 24 25 26 25 25 25 26 26 25 25 25
2 3 3 3 3 4 5 6 8 9 10 10 10 11 11 11 11 12 12 12 12 12 11 12 12 13 14 13 13 13 13 12 11 12 12 12 12 12 11 11 10 10 10 9 8 7 7 7 7 7 7 7 7 8 9 10 12 13 14 14 14 15 15 16 16 17 17 18 18 18 19 19 20 21 22 22 22 24 25 25 26 26 27 27 26 27
2 3 2 2 3 4 5 6 7 9 10 11 12 12 11 11 11 11 11 12 13 12 12 12 13 14 15 15 15 14 13 12 13 13 13 13 13 13 13 12 11 10 11 11 10 8 8 7 7 7 7 7 6 7 8 9 10 12 13 13 13 13 13 14 15 15 16 17 17 18 18 19 20 21 22 22 23 24 24 25 26 26 27 27 28 28
2 2 1 2 3 3 4 6 7 9 10 12 13 13 12 11 11 10 9 11 13 12 12 13 13 14 15 15 16 15 13 13 15 16 14 14 13 13 13 13 12 10 10 11 11 10 10 9 8 8 8 7 6 7 7 7 8 10 11 12 12 12 12 13 13 14 14 14 14 15 16 17 18 19 21 22 23 24 24 24 25 25 25 26 27 28
2 2 1 2 3 4 4 6 7 8 9 11 12 12 12 11 9 8 9 12 13 11 10 11 12 13 14 14 14 14 14 14 16 16 15 14 14 13 12 13 12 11 10 11 11 11 11 10 10 10 9 9 8 7 7 8 8 9 10 10 11 11 11 12 13 13 12 12 12 13 14 14 15 16 18 19 21 22 22 23 23 23 23 24 24 25
3 3 2 2 3 3 3 5 6 7 9 10 10 11 11 10 8 8 11 12 12 11 10 9 10 11 12 12 13 13 14 15 15 14 14 14 14 13 13 13 13 12 11 11 12 12 11 11 11 11 11 11 11 10 9 9 9 10 11 11 11 11 12 12 13 13 13 13 13 14 14 13 13 13 15 16 17 18 19 20 21 21 21 22 22 23
4 4 3 3 2 3 3 4 5 6 8 9 9 8 8 9 9 10 11 11 10 10 9 9 9 9 10 10 11 11 12 13 13 13 13 14 14 13 13 13 14 13 13 13 13 12 12 11 11 11 12 13 13 13 12 11 11 12 12 12 12 12 12 12 13 14 14 14 14 15 15 15 14 13 14 15 16 16 17 18 19 19 20 20 21 21
5 4 5 5 4 4 4 3 4 6 8 8 7 7 6 8 10 10 9 9 9 9 9 9 9 9 9 8 9 9 10 11 12 12 13 13 13 13 13 13 13 14 14 14 13 13 13 12 12 12 12 13 13 14 14 14 13 13 13 12 13 13 13 13 14 14 14 14 14 15 15 16 16 15 15 16 16 16 17 17 18 18 19 19 20 20
5 5 5 6 5 4 5 5 6 7 7 6 6 6 6 6 8 8 8 8 7 8 8 8 9 9 10 9 9 10 10 11 12 12 13 13 13 13 13 13 13 13 13 14 13 13 13 13 13 13 13 13 13 13 14 14 14 14 14 14 15 16 16 16 16 16 15 15 15 15 15 16 17 17 17 17 17 17 17 17 18 18 18 19 19 19
6 5 5 5 5 5 6 6 7 6 4 3 3 5 5 5 6 7 7 7 7 8 8 8 8 9 9 9 10 10 10 11 12 13 13 13 13 13 13 13 13 13 13 13 13 13 13 13 13 13 13 13 14 14 14 14 14 14 14 15 16 17 17 17 18 18 18 18 18 17 17 17 17 18 18 18 18 17 17 17 17 17 18 19 20 20
6 5 4 4 5 5 4 5 5 4 3 2 2 3 4 4 5 6 6 7 7 8 8 8 8 9 9 9 9 10 10 11 12 12 13 13 13 14 13 13 13 13 13 13 13 13 13 13 13 13 13 13 14 14 14 15 15 15 15 16 16 16 17 17 18 18 19 20 20 20 20 19 19 19 19 19 18 18 18 18 18 17 17 18 19 20
5 4 3 3 4 4 3 4 5 4 4 3 2 2 3 4 5 6 6 7 7 7 8 8 8 8 9 9 10 10 10 11 11 12 13 13 14 14 14 14 13 13 13 13 13 13 14 14 14 14 14 14 14 15 15 15 16 17 17 17 17 17 17 17 18 18 19 19 20 20 21 21 21 21 21 20 19 19 19 18 18 18 17 17 17 17
5 4 3 3 3 3 4 5 4 4 4 4 3 3 4 4 4 5 6 6 7 7 7 8 8 8 9 10 10 10 11 11 12 12 13 13 14 15 15 14 15 14 14 14 14 14 14 14 14 14 14 15 15 15 16 16 16 17 18 18 18 18 18 18 18 19 19 19 20 20 21 21 21 21 22 22 21 21 20 20 20 19 19 18 16 15
4 4 4 4 4 3 3 4 4 3 3 4 4 4 4 4 4 4 4 5 6 6 6 7 8 8 9 10 10 10 11 12 12 13 13 13 14 15 15 15 15 15 15 15 15 15 15 15 15 15 15 15 16 16 17 17 17 17 18 18 18 18 18 18 18 19 19 20 20 20 20 21 21 21 22 22 22 22 22 21 21 21 21 20 19 17
4 4 4 4 5 5 6 6 5 4 5 5 5 5 5 5 4 4 4 5 5 5 6 6 7 8 8 9 9 10 11 12 12 13 13 13 14 15 15 16 16 16 16 16 16 16 16 16 16 16 16 16 17 17 17 18 18 18 19 19 19 19 19 19 19 18 19 19 20 20 21 21 21 22 22 22 22 22 22 22 21 22 22 22 22 21
5 6 6 5 6 7 7 7 6 5 5 6 6 5 5 5 5 4 5 5 6 6 6 6 6 7 8 9 9 10 10 11 12 13 13 14 14 15 15 16 16 16 16 16 16 17 17 17 17 18 18 18 18 18 18 19 19 20 20 20 20 20 20 20 20 19 19 19 19 20 20 21 21 21 22 22 22 21 21 21 21 21 22 22 23 23
Wind_Direction
220 220 221 219 216 214 213 210 208 211 215 215 213 219 221 217 215 212 212 211 204 209 216 212 211 210 206 204 204 202 197 194 195 198 196 190 189 191 188 187 190 191 191 187 186 185 179 177 177 174 170 167 167 166 164 165 164 163 158 156 154 151 149 146 143 142 140 138 137 136 136 136 137 138 139 140 142 142 142 142 142 141 140 138 135 132
217 219 222 219 216 215 214 213 213 215 217 219 218 219 221 217 213 210 207 207 208 214 219 214 213 215 212 211 211 207 199 197 197 198 199 195 192 193 192 191 194 196 193 190 189 187 182 179 179 177 174 171 168 167 167 167 168 169 165 161 158 155 154 151 148 147 146 143 141 140 140 139 139 139 139 141 142 142 143 144 145 144 144 143 140 138
220 222 223 219 215 213 215 217 217 218 220 224 223 217 218 214 207 208 209 207 211 218 220 216 213 217 220 218 216 211 202 201 203 200 201 201 198 198 197 195 197 197 194 192 191 188 185 181 181 180 178 175 172 170 170 171 173 172 170 166 162 159 159 156 153 152 150 147 144 143 144 145 144 143 142 141 142 143 144 147 148 149 149 147 145 143
220 221 220 218 213 209 214 217 215 215 219 224 222 215 216 212 205 212 213 207 212 220 219 216 216 218 221 221 219 215 209 207 207 205 205 206 203 204 203 198 198 199 196 194 192 189 186 183 183 182 181 179 176 174 174 175 177 176 175 171 166 165 164 160 158 157 154 150 148 145 144 145 146 145 144 142 142 144 145 147 149 151 152 151 149 148
219 217 214 214 212 208 210 214 213 212 216 223 219 214 214 209 208 211 204 200 209 221 217 209 216 222 218 218 218 215 213 213 211 209 210 210 206 208 209 202 199 200 200 196 194 190 187 186 185 184 184 182 180 179 179 179 181 180 179 176 172 171 168 165 164 162 157 154 152 149 144 144 145 145 147 147 146 145 147 150 150 152 154 153 152 150
223 220 214 212 212 209 209 213 212 208 213 222 219 213 210 207 206 201 192 194 204 221 218 205 213 225 217 216 218 215 216 215 212 211 214 214 210 209 210 205 202 203 202 199 196 192 189 188 188 187 186 184 183 183 183 184 184 184 183 181 179 176 173 171 169 165 162 160 158 156 151 149 148 149 152 153 150 149 151 153 153 154 156 155 155 153
223 219 210 212 213 209 209 212 210 205 209 222 220 211 205 201 200 195 193 198 206 218 215 205 211 224 218 218 218 216 217 216 215 214 215 215 213 211 210 207 206 206 203 199 197 194 191 191 191 190 188 186 185 185 187 187 187 187 187 185 183 180 177 175 173 170 168 166 164 162 161 159 157 156 157 158 155 153 153 155 155 157 159 159 159 156
220 217 209 212 212 208 209 211 208 204 207 218 216 204 198 196 196 197 200 205 210 214 208 207 213 219 219 218 213 212 215 217 218 217 216 216 215 213 212 209 208 207 204 200 197 195 194 193 194 193 191 189 187 187 189 189 189 190 190 188 185 183 181 179 178 177 176 173 170 169 168 168 167 165 163 164 162 158 157 158 159 160 163 163 162 161
218 217 213 211 209 208 210 210 208 204 205 214 209 198 197 197 199 203 207 210 210 206 205 210 214 220 226 215 204 207 214 217 218 218 216 216 217 215 213 212 209 207 204 201 199 197 196 195 196 195 193 192 190 189 191 191 192 193 193 191 188 186 184 183 184 183 182 180 177 176 175 174 174 172 170 170 169 167 164 164 165 166 166 165 166 166
224 219 214 207 207 209 211 211 209 204 205 211 206 199 199 202 205 206 209 211 207 209 214 212 209 216 227 212 200 204 214 219 218 217 216 216 217 215 213 213 210 207 205 202 201 199 198 197 197 197 196 194 192 191 192 193 193 194 195 193 191 189 188 187 188 186 186 184 183 183 181 179 178 177 176 175 174 174 171 168 169 171 170 169 172 172
232 225 215 208 208 209 208 207 204 204 207 207 203 199 198 203 209 208 212 210 204 217 222 212 207 212 224 215 205 207 215 216 212 213 214 215 216 215 213 213 211 208 205 203 202 201 199 198 198 198 197 196 194 193 193 193 194 194 196 195 194 192 191 191 191 190 189 188 187 188 186 184 183 181 180 179 179 180 177 174 175 176 175 175 177 177
235 222 214 212 211 205 202 205 204 205 207 204 202 202 200 202 205 206 213 210 206 221 225 212 207 213 225 222 215 219 224 217 211 213 213 211 212 213 213 213 211 208 205 203 202 202 200 199 199 199 198 196 194 193 194 194 195 195 196 196 196 195 195 194 194 194 193 191 191 192 190 189 187 185 184 183 183 184 182 181 181 181 180 181 182 181
228 215 216 217 214 204 199 208 210 207 207 204 203 203 202 205 206 207 213 212 212 223 229 212 204 213 230 228 219 222 224 219 216 217 214 209 207 209 212 211 210 208 205 204 203 203 202 201 200 199 197 197 196 195 194 195 196 197 197 197 197 197 197 197 198 197 196 195 195 194 193 192 191 190 189 189 188 187 186 185 184 184 184 185 185 184
222 218 220 214 214 208 203 207 208 206 207 206 203 203 205 206 207 211 217 215 214 228 235 207 199 214 232 229 221 219 218 215 215 216 214 211 207 207 210 210 209 208 205 204 204 204 203 202 201 200 198 198 198 197 196 195 197 199 200 199 198 199 199 199 200 200 199 199 198 197 196 195 195 195 194 195 194 192 191 189 188 187 187 188 189 187
212 216 211 201 214 217 207 204 201 202 207 208 204 206 211 212 210 213 214 211 212 228 226 198 202 217 220 224 227 217 211 207 209 213 211 211 208 206 209 209 209 208 206 205 205 204 204 203 202 201 201 200 200 199 198 197 198 200 201 201 200 200 201 201 202 202 202 201 200 200 200 199 198 198 198 198 197 197 196 194 192 191 191 191 192 192
210 214 212 211 220 215 207 205 200 201 209 213 209 210 218 218 214 214 214 213 214 224 219 205 214 220 212 222 230 212 204 202 204 210 206 206 206 204 205 207 207 207 206 206 206 205 205 204 203 203 203 203 202 201 201 200 199 200 202 202 202 202 202 201 202 203 204 203 202 202 202 202 201 201 200 200 200 200 199 197 196 196 196 196 196 196
219 218 220 224 221 212 212 211 203 201 208 215 213 215 221 218 211 212 220 223 216 219 224 217 222 225 214 220 224 207 203 203 204 207 204 203 201 201 203 202 201 205 207 207 208 207 206 205 205 205 204 204 204 203 202 201 200 201 203 204 203 204 204 203 203 204 205 204 203 203 203 203 203 202 202 201 201 201 202 201 201 200 201 201 201 201
223 221 224 220 216 225 225 211 202 202 207 214 219 219 218 217 215 214 219 225 218 217 228 226 223 222 214 215 220 213 208 208 209 208 204 202 200 201 202 199 199 203 207 209 209 209 208 207 206 206 206 205 205 204 204 203 203 203 205 206 205 205 205 205 205 205 206 205 205 205 205 205 204 203 203 202 201 202 203 205 204 203 204 205 204 205
223 222 226 213 210 229 220 198 199 210 212 211 216 214 211 215 220 220 219 220 220 222 229 232 225 218 212 217 222 222 220 214 208 207 205 203 202 203 203 201 202 204 207 210 210 210 210 209 207 206 207 207 206 205 205 205 205 205 206 207 208 207 206 206 206 207 207 207 206 206 207 207 206 205 204 204 203 204 205 206 205 204 206 208 207 207
222 217 223 217 217 224 209 194 199 212 216 213 213 212 212 213 215 218 219 215 215 220 224 228 228 221 218 221 222 228 232 220 205 205 207 205 205 205 205 205 205 207 210 211 211 211 211 212 211 209 208 209 208 207 207 207 208 207 207 209 210 210 208 207 208 208 208 208 209 208 209 209 209 208 207 206 206 207 207 207 207 207 209 209 209 209
226 221 224 223 222 215 205 203 204 209 216 215 211 215 223 224 220 222 223 217 212 214 215 216 224 224 220 219 220 226 234 227 212 207 208 207 206 206 208 208 209 212 214 214 212 211 212 213 213 212 212 211 210 209 209 210 210 210 209 211 212 211 210 209 209 209 210 210 210 210 210 210 211 211 210 210 210 210 210 210 210 211 211 211 212 213
236 230 227 226 224 216 214 214 209 211 217 208 202 213 223 223 224 224 226 223 216 213 213 212 219 225 220 215 218 223 228 230 221 210 208 208 206 206 208 209 212 216 218 217 215 213 213 214 213 213 213 213 212 212 211 212 212 211 211 211 212 212 212 211 211 211 211 211 211 212 212 212 212 213 213 213 213 214 214 214 215 214 214 215 215 215
242 229 226 228 226 221 222 219 209 212 216 203 195 209 217 218 226 221 218 220 218 217 217 215 220 224 217 211 216 223 226 227 223 215 210 206 203 204 207 208 211 216 219 218 216 215 216 217 216 215 214 212 214 215 214 213 213 212 211 211 212 213 213 213 212 212 212 213 213 213 213 214 214 214 215 215 215 216 216 217 218 218 218 218 218 218
255 239 234 234 231 227 226 222 209 204 207 201 199 213 222 228 234 217 208 208 209 210 209 209 219 222 216 212 214 220 225 223 223 226 221 214 213 212 211 211 211 213 216 216 215 215 216 218 219 218 215 214 215 215 215 215 214 213 212 212 213 213 214 214 214 213 213 213 214 215 215 215 216 216 216 217 217 218 218 219 220 220 221 221 221 221
261 245 238 234 234 233 228 222 214 210 207 201 206 228 244 241 234 215 206 205 203 205 204 202 212 216 213 214 214 216 220 220 226 231 226 223 227 225 221 218 215 214 214 213 214 214 215 217 220 219 217 217 216 215 215 217 216 215 214 214 213 213 214 214 214 213 213 213 214 215 216 216 217 217 218 218 218 219 220 221 221 222 223 224 224 224
250 237 228 221 223 224 220 215 215 220 219 210 212 232 252 247 226 208 199 198 200 207 205 201 207 210 210 214 215 216 218 220 229 232 227 227 232 231 226 221 218 217 216 216 216 216 217 219 220 220 219 218 216 216 217 218 218 217 216 215 213 213 213 214 215 214 212 213 213 215 216 217 217 218 219 220 220 220 221 222 223 224 224 224 225 227
244 237 226 216 216 221 220 215 215 218 219 220 230 225 195 199 207 197 190 193 197 197 196 203 206 204 211 217 215 216 217 218 228 233 230 231 234 236 231 227 223 219 219 222 222 222 223 223 223 223 222 221 219 219 219 219 219 217 216 215 214 213 213 214 215 214 212 213 213 214 216 217 218 219 221 221 222 222 223 223 224 225 226 226 227 229
244 244 236 228 225 226 224 219 217 216 215 218 226 204 183 193 196 188 196 208 206 197 199 212 208 201 215 222 215 217 221 221 229 234 232 230 230 231 233 234 233 226 223 226 229 232 233 231 231 228 225 224 221 220 221 220 218 216 214 213 213 213 213 214 214 214 213 212 213 214 215 216 218 220 221 222 222 223 224 225 225 226 227 228 228 229
242 242 240 240 240 237 236 232 222 215 213 213 210 197 190 202 200 188 202 215 208 198 202 209 205 203 218 226 222 223 226 226 232 236 233 231 230 230 232 237 241 237 232 229 232 236 236 237 239 234 230 228 224 221 222 221 218 216 214 212 211 211 213 213 213 214 214 213 214 214 214 215 218 220 222 223 223 223 224 225 226 227 227 228 229 230
252 250 247 243 245 244 242 245 233 214 209 205 199 196 195 203 206 195 196 201 192 190 197 203 203 209 218 224 225 227 227 227 232 237 237 239 239 236 236 237 240 243 240 234 232 234 234 240 247 241 234 231 228 225 223 219 217 218 217 216 215 214 215 214 213 216 217 216 215 215 215 216 218 220 222 223 224 225 225 226 227 228 229 229 230 231
270 263 259 243 245 244 234 244 252 218 203 200 200 203 201 201 206 203 206 208 200 199 205 209 212 217 222 226 226 225 225 225 232 238 239 239 238 233 230 232 236 242 242 236 234 233 233 240 250 246 238 234 231 226 220 216 215 216 217 218 217 217 219 218 217 217 218 217 216 216 217 218 219 221 222 224 225 226 227 228 229 229 230 230 231 232
277 271 268 247 245 240 230 244 258 213 195 201 208 215 213 203 201 206 212 217 215 212 214 217 222 226 229 231 229 227 227 228 234 238 235 232 230 228 228 233 239 245 245 238 235 233 233 238 244 242 238 235 230 224 218 216 215 215 216 217 218 220 220 220 221 221 220 219 218 216 217 219 222 223 224 225 227 227 228 230 230 230 231 231 232 232
272 270 270 253 242 238 234 242 240 212 202 211 215 222 223 209 202 209 215 223 227 224 221 224 228 231 232 233 232 231 232 232 235 237 236 234 231 229 233 238 242 246 246 241 238 237 237 238 238 238 236 233 229 224 219 216 216 216 217 219 220 221 221 221 225 227 224 223 221 220 220 222 225 226 227 229 230 230 230 231 232 233 234 234 234 234
286 276 265 252 239 238 241 241 229 216 217 218 217 224 226 211 203 210 218 226 232 229 225 226 228 230 232 231 232 232 231 232 234 238 240 239 237 236 238 241 243 242 242 241 239 239 239 237 236 237 235 231 230 225 219 216 216 216 218 220 221 222 223 224 227 228 227 227 227 225 224 227 229 231 232 233 234 233 233 234 235 236 236 237 237 237
299 295 269 252 238 237 238 231 218 216 218 216 214 222 227 217 205 206 216 228 229 222 221 225 227 228 228 229 230 230 229 229 232 237 242 242 239 237 236 237 239 239 240 240 237 236 236 235 235 236 234 231 230 224 218 216 217 218 221 223 222 223 224 224 225 226 228 232 233 231 230 232 234 235 235 235 235 235 236 237 238 239 239 239 238 238
274 291 275 255 238 234 231 217 210 213 218 220 213 215 227 231 222 218 225 237 237 230 227 230 232 230 226 227 228 228 228 231 234 237 240 239 236 234 232 232 233 235 237 239 237 234 232 230 229 228 226 225 225 221 218 217 217 219 221 222 222 223 223 223 225 227 231 235 236 235 234 236 235 234 235 235 234 234 237 241 242 241 240 240 240 241
256 282 281 263 237 225 215 206 202 206 217 227 221 216 229 244 237 224 224 234 242 242 235 233 235 233 229 229 229 228 228 232 239 243 241 236 233 232 232 231 230 231 232 234 234 231 229 226 225 223 220 218 217 219 221 220 218 216 215 217 220 221 220 222 226 230 234 237 239 238 236 237 236 235 235 235 234 235 239 243 245 244 243 242 243 243
282 268 245 240 239 220 202 200 204 210 217 223 226 227 239 252 242 224 221 231 240 244 239 236 237 236 233 231 231 232 234 236 241 245 243 237 234 231 229 229 229 227 227 229 230 230 229 229 227 223 221 219 216 219 221 220 218 216 213 213 215 216 218 222 227 231 234 236 238 239 239 239 239 240 240 240 241 242 244 245 247 249 249 247 246 246
316 290 226 229 255 239 213 208 212 217 218 221 226 231 240 247 237 224 227 235 240 244 243 240 240 239 235 234 234 235 237 239 240 241 242 238 236 233 230 230 230 229 226 226 228 230 231 231 227 223 222 220 215 215 218 218 215 213 214 215 217 219 221 224 226 228 230 232 235 238 240 240 241 243 244 245 246 246 247 247 248 250 251 251 250 250
308 302 275 260 266 253 228 220 222 224 225 226 230 236 241 243 235 227 233 239 240 243 243 239 240 240 237 237 238 238 239 239 236 235 237 237 235 235 234 232 231 232 230 228 228 229 230 230 228 226 225 225 223 223 226 227 221 217 219 222 223 225 226 226 225 227 229 233 236 239 240 241 243 246 246 246 247 247 248 248 249 249 250 251 251 251
277 278 265 252 261 254 228 221 228 232 232 235 241 246 244 242 238 234 235 236 236 238 238 236 238 240 239 238 241 242 243 240 231 228 232 234 233 234 234 232 231 231 232 231 231 232 234 235 235 234 233 232 231 231 233 233 230 228 228 229 229 231 233 233 232 233 235 238 241 241 241 240 242 245 247 247 248 249 249 249 248 249 249 250 251 251
262 266 265 256 254 250 230 220 230 238 240 241 247 254 246 237 238 239 236 233 232 233 236 236 236 239 240 239 239 239 237 231 225 225 229 232 232 234 235 234 232 233 234 236 237 237 238 238 238 239 240 238 235 234 234 233 233 233 232 232 232 234 236 238 238 240 242 243 243 243 241 240 241 245 247 248 250 250 250 250 249 249 249 249 249 249
245 247 257 254 245 240 236 234 235 240 246 246 246 256 255 237 230 230 228 228 230 230 233 235 236 238 238 235 232 230 227 226 226 228 231 233 235 237 238 237 236 236 237 239 241 241 239 239 239 241 243 243 241 239 238 236 236 235 235 236 238 238 239 241 242 242 244 245 245 244 242 241 244 247 250 252 253 253 253 254 253 252 252 249 247 246
247 243 249 249 242 237 239 243 240 240 248 250 240 245 251 235 221 216 216 222 229 230 231 233 235 237 235 232 229 228 227 229 230 230 232 234 237 240 240 240 238 238 238 238 239 240 240 239 240 242 244 245 245 244 243 242 240 239 241 245 247 248 248 249 248 246 246 248 250 250 250 250 251 253 254 256 257 255 254 255 255 254 253 252 249 247
246 238 238 244 248 245 239 239 238 237 246 252 230 226 229 223 217 217 219 226 233 235 234 231 231 233 232 230 229 230 231 232 233 234 235 235 236 238 240 240 238 235 235 235 236 238 240 241 241 242 245 248 248 248 248 249 248 248 250 252 252 253 253 253 252 250 250 251 252 253 255 257 258 259 259 259 260 259 258 258 257 256 256 255 252 250
249 244 248 256 257 256 250 239 232 227 225 224 222 222 218 219 225 228 230 236 241 242 239 235 232 231 230 229 230 231 232 233 234 236 237 236 236 236 237 238 237 235 235 236 238 241 243 244 245 246 247 250 252 251 250 251 252 253 254 254 253 254 254 254 254 254 253 253 253 253 254 255 257 259 260 259 259 260 260 259 258 258 258 256 253 251
265 258 256 256 249 248 248 238 226 217 210 205 210 229 231 231 238 242 242 243 244 245 243 238 236 235 233 232 232 231 231 232 234 236 237 237 238 238 237 238 239 240 241 242 244 245 245 246 248 250 249 250 252 253 252 252 253 253 254 254 254 255 255 254 255 255 255 254 253 253 253 253 254 255 257 258 258 256 256 256 255 255 255 254 253 251
260 248 241 245 249 248 240 226 212 208 218 218 213 221 225 227 238 246 246 244 245 248 246 242 241 242 240 239 238 235 233 233 233 235 238 239 239 240 239 239 241 243 245 246 247 247 247 248 249 250 250 250 251 252 253 253 253 253 254 254 255 255 256 255 255 255 255 255 254 254 253 253 253 253 254 255 255 253 251 251 251 251 250 250 249 248
246 243 241 238 239 249 244 222 207 218 247 244 229 225 227 227 231 238 243 245 246 250 251 248 248 248 246 244 243 240 237 236 236 237 240 242 242 242 241 242 243 244 245 246 247 247 248 249 249 250 251 251 252 253 253 254 254 254 254 254 256 257 257 257 256 254 254 254 254 254 253 253 252 252 252 252 253 252 250 249 248 247 247 246 245 244
244 245 246 235 232 244 245 229 218 231 252 247 234 231 237 241 242 241 243 245 248 250 252 252 253 252 250 247 245 244 242 242 241 240 242 244 245 244 244 245 246 245 246 248 249 248 248 250 250 251 252 253 253 254 254 254 255 255 255 257 257 258 258 257 256 255 254 254 254 253 253 253 253 252 252 252 251 250 249 248 247 247 246 246 246 246
239 235 235 231 237 245 238 224 221 232 243 241 236 236 242 248 249 246 244 246 249 252 254 254 254 254 254 252 249 248 249 247 244 242 244 246 247 246 247 248 248 248 249 250 250 250 251 252 252 253 254 254 255 255 255 255 256 256 257 258 258 259 258 257 256 255 255 255 255 254 254 254 254 253 252 251 250 248 247 246 246 246 247 246 246 247